Workout of the Day

« September 7, 2022 »

4 x 6 minutes with rate changes. 2 minutes rest between intervals.

4 x 6 minutes of work with two minutes rest between intervals. Each 6 minute interval is split into 3 minutes then 2 minutes then 1 minute at different stroke rates or cadence. RowErg: 3 minutes at 22, 2 minutes at 24, 1 minute at 28. SkiErg: 3 minutes at 33, 2 minutes at 36, 1 minute at 42. BikeErg: 3 minutes at 78, 2 minutes at 82, 1 minute at 90.

Pos. Name Age Country Result Pace
1701 Kathleen Fleming - USA 3,129 3:50.1
1702 Pam Terry 58 USA 3,102 3:52.1
1703 Immi Song 60 USA 3,095 3:52.6
1704 Chad Murphy 35 USA 3,093 3:52.7
1705 Richard DiMambro 66 USA 3,079 3:53.8
1705 Leslie Banks 69 USA 3,079 3:53.8
1707 Meghan Aylward 43 CAN 3,030 3:57.6
1708 Cindy Lufkin 57 USA 2,997 4:00.2
1709 Isobel Parks 62 USA 2,982 4:01.4
1710 Deborah Toth 39 USA 2,967 4:02.6
1711 Sue Rees 68 USA 2,964 4:02.9
1712 rachel farney 41 USA 2,954 4:03.7
1713 Krista Park 45 USA 2,933 4:05.4
1714 Paula Salinger 54 USA 2,918 4:06.7
1715 Murat Sevik 48 TUR 2,903 4:08.0
1716 Thomas Savino 58 USA 2,902 4:08.1
1717 Vi Hau 50 GER 2,855 4:12.1
1718 YOONGON LEE 35 KOR 2,850 4:12.6
1719 Zillah Martin 69 GBR 2,836 4:13.8
1720 Mels Si 43 GER 2,790 4:18.0
1721 Nheylin Ung 32 USA 2,755 4:21.3
1722 Betty B 39 USA 2,656 4:31.0
1723 Geoff catchpole 69 GBR 2,632 4:33.5
1724 Damon Gates 75 USA 2,570 4:40.1
1725 Patricia Banks 63 USA 2,546 4:42.7
1726 Melissa Schaefer 60 USA 2,489 4:49.2
1727 Colt S 8 USA 2,426 4:56.7
1728 Kristen Davis 52 USA 2,346 5:06.9
1729 Stefan Wiefhoff 51 GER 2,163 5:32.8
1730 Christopher Davis 51 USA 2,154 5:34.2
1731 Geraldine Dunbar 77 USA 1,803 6:39.3
1732 Amy Miller (AM) Feehery - USA 978 12:16.1
1733 Óscar Daniel Fonseca valenzuela 31 MEX 668 17:57.8
1734 choi jinwon 37 KOR 0